User: anonymous   Login
Location: Gleizolles
(44.4833°N, 6.7667°E)
Time: 21:37:56
(UTC+00:00)
Language:

deb Explorer IX - Orbit

View from above orbital plane
View from above orbital plane
View from above satellite
View from above satellite

Ground track
Ground track

The orbit data is extracted from the following two-line orbital elements,

1 00085U 61004C   24174.75441935  .00012232  00000-0  15999-2 0  9995
2 00085  38.7414 336.3688 0263735 355.2494   4.5776 14.58689026141203
Epoch (UTC): 22 June 2024 18:06:21
Eccentricity: 0.0263735
inclination: 38.7414°
perigee height: 511 km
apogee height: 884 km
right ascension of ascending node: 336.3688°
argument of perigee: 355.2494°
revolutions per day: 14.58689026
mean anomaly at epoch: 4.5776°
orbit number at epoch: 14120

The dashed part of the orbit path shows where the satellite is in the earth's shadow,  

DLR